Weather History For Prescott AZ
This page updates 5 minutes after midnight. GMT -7
Station: KPRC0 Rows: 26
| Year | Date | Temp (°F) | Tmin (°F) | Tmax (°F) | RH% | Prcp | Snow | Wind | Gust | Pres | Sun | Cloud |
|---|---|---|---|---|---|---|---|---|---|---|---|---|
| 2000 | 2000-04-25 | 63.5 | 44.1 | 81.0 | 28 | — | — | 10.3 | — | 29.93 | — | 0 |
| 2001 | 2001-04-25 | 62.2 | 41.0 | 79.0 | 32 | — | — | 10.9 | — | 29.98 | — | 0 |
| 2002 | 2002-04-25 | 65.8 | 59.0 | 75.2 | 36 | — | — | 15.2 | — | 29.84 | — | 4 |
| 2003 | 2003-04-25 | 56.7 | 39.2 | 68.0 | 34 | — | — | 16.9 | — | 29.84 | — | 0 |
| 2004 | 2004-04-25 | 60.8 | 42.8 | 75.2 | 25 | — | — | 10.1 | — | 30.01 | — | 0 |
| 2005 | 2005-04-25 | 48.9 | 37.0 | 57.9 | 66 | — | — | 12.2 | — | 29.86 | — | 4 |
| 2006 | 2006-04-25 | 55.0 | 37.9 | 71.1 | 30 | 0.0 | — | 12.0 | — | 29.87 | — | — |
| 2007 | 2007-04-25 | 58.3 | 39.9 | 75.0 | 32 | 0.0 | — | 10.5 | — | 29.93 | — | 0 |
| 2008 | 2008-04-25 | 53.2 | 33.1 | 72.0 | 17 | 0.0 | — | 8.2 | — | 30.04 | — | 0 |
| 2009 | 2009-04-25 | 54.9 | 43.0 | 62.1 | 26 | 0.0 | — | 24.2 | — | 29.77 | — | 0 |
| 2010 | 2010-04-25 | 57.6 | 39.0 | 73.9 | 34 | 0.0 | — | 10.8 | — | 29.95 | — | 0 |
| 2011 | 2011-04-25 | 57.2 | 39.9 | 73.0 | 34 | 0.0 | — | 12.2 | — | 29.81 | — | 0 |
| 2012 | 2012-04-25 | 66.2 | 54.0 | 77.0 | 23 | 0.0 | — | 7.6 | — | 29.87 | — | 2 |
| 2013 | 2013-04-25 | 55.8 | 42.1 | 66.0 | 31 | — | — | 13.4 | — | 29.86 | — | 2 |
| 2014 | 2014-04-25 | 59.5 | 43.0 | 71.1 | 23 | 0.0 | — | 18.0 | — | 29.74 | — | 0 |
| 2015 | 2015-04-25 | 49.8 | 41.0 | 55.0 | 66 | — | — | 18.4 | — | 29.76 | — | — |
| 2016 | 2016-04-25 | 50.7 | 42.1 | 57.9 | 44 | — | — | 27.5 | — | 29.62 | — | — |
| 2017 | 2017-04-25 | 58.6 | 46.0 | 68.0 | 27 | 0.0 | — | 18.8 | — | 29.61 | — | 0 |
| 2018 | 2018-04-25 | 67.1 | 46.9 | 82.0 | 21 | 0.0 | — | 8.5 | — | 29.93 | — | 0 |
| 2019 | 2019-04-25 | 66.0 | 50.0 | 81.0 | 30 | 0.0 | — | 10.0 | — | 29.91 | — | 1 |
| 2020 | 2020-04-25 | 63.1 | 45.0 | 78.1 | 30 | 0.0 | — | 7.8 | — | 29.98 | — | 0 |
| 2021 | 2021-04-25 | 61.3 | 52.0 | 71.1 | 24 | 0.0 | — | 18.9 | — | 29.74 | — | 0 |
| 2022 | 2022-04-25 | 54.1 | 32.0 | 71.1 | 21 | 0.0 | — | 9.3 | — | 30.01 | — | 0 |
| 2023 | 2023-04-25 | 62.8 | 51.1 | 73.0 | 25 | 0.0 | — | 21.6 | — | 29.72 | — | 1 |
| 2024 | 2024-04-25 | 53.4 | 46.0 | 63.0 | 50 | — | — | 12.9 | — | 29.80 | — | 3 |
| 2025 | 2025-04-25 | 59.0 | 45.0 | 71.1 | 26 | 0.0 | — | 18.5 | — | 29.79 | — | 0 |